Back to catalog

SL-16 DEB

AliveLEO
NORAD 23409·DEBRIS·🇷🇺 Russia

Launched Nov 24, 1994 from Baikonur Cosmodrome

Loading…

Next Passes (next 24 hours)

TLE

FreshSource: Space-Track

Epoch: Sep 14, 2026, 05:44 UTC

1 23409U 94077F   26257.23929710  .00000099  00000-0  97117-4 0  9997
2 23409  70.8807 191.8348 0089616 162.9700 197.4456 13.98981621622597

Track SL-16 DEB in real time with AllMySat

Download on the App Store